STARLINK-1802, 46702

Orbit data source: Space-Track

STARLINK-1802, 46702 is a payload satellite owned by SpaceX/Seattle (US) in LEO that was launched on Sun, 18 Oct 2020 UTC via an FALCON 9 launch vehicle from the Air Force Eastern Test Range (AFETR). Payload-class satellites include a variety of spacecraft equipped with specific instruments for various scientific and technological missions. These include communications satellites like Starlink; space stations such as the ISS; scientific satellites like the Hubble; Earth observation satellites from companies like Planet Labs, Umbra, and HawkEye 360; GPS; miniature CubeSats for education and research; and military/defense satellites.

Loading next visibility...
Identifier
46702, 2020-073AJ
Orbit
LEO
Country
Flag of USUS
Related business
Manufacturer
SpaceX/Seattle
Mission
Operational Commercial Communications
Bus & Motor
STARLINK, Unknown motor
Mass
260 kg wet, ~248 kg dry
Launch date (UTC)
2020-10-18 (5 years ago)
Launch vehicle
FALCON 9
Launch site
Air Force Eastern Test Range (AFETR)
Object type
Payload
Rocket body
Debris
Shape & HBR
Box + 1 Pan, 10.1 m
Radar Cross Section
13.562 m², Large (>1 m²)

Expand to show TLE details & history
Last TLE update: 23 hours ago

TLE from 23 hours ago
0 STARLINK-1802
1 46702U 20073AJ  25288.34117035  .00000010  00000-0  19549-4 0  9993
2 46702  53.0583 154.1116 0001754  87.8398 272.2792 15.06399809275504
Epoch: 2025-10-15T08:11Z
TLE epoch observation values (Epoch: 2025-10-15T08:11:17.118Z)
Latitude
Longitude
7.17364°
Altitude
548.044 km
Speed
7.589 km/s
True Right ascension
10h 16m 26s
True Declination
0° 00' 00"
Sunlit
Object was in daylight at epoch
Visualization orbit readout
Latitude
Unknown
Longitude
Unknown
Altitude
Unknown
Speed
Unknown
Apparent Right ascension
Unknown
Apparent Declination
Unknown
Sunlit
N/A
Visualization observer readout
Local Sidereal Time
02:03:14
Azimuth
Unknown
Elevation
Unknown
Doppler factor
Unknown
Orbital elements
Apogee altitude
548.697 km
Perigee altitude
546.268 km
Semi-major axis
6,925.619 km
Eccentricity
0.00018
Inclination
53.0583°
RAAN
154.1116°
Arg. of periapsis
87.8398°
True anomaly
272.25912°
Mean anomaly
272.2792°
Eccentric anomaly
272.26916°
Mean motion
3.76578 °/min
Orbital period
95.6 mins
BSTAR
0.000019549
Loading maneuver chart data...
Computing Atmospheric mass density...

Documentation

Showing up to 5 results
|